Fitchburg, MA

5:00 AM EDT on April 29, 2017 (GMT -0400)
Fitchburg Municipal

Weather History for KFIT - December, 2013

Change the Weather History Date:

Tuesday, December 3, 2013

  Actual Average (KORH) Record (KORH)
Temperature  
Mean Temperature 40 °F -  
Max Temperature 51 °F 39 °F 63 °F (2009)
Min Temperature 28 °F 24 °F 0 °F (1976)
Degree Days  
Heating Degree Days 26    
Moisture  
Dew Point 31 °F    
Average Humidity 81    
Maximum Humidity 93    
Minimum Humidity 44    
Precipitation  
Precipitation 0.00 in - - ()
Sea Level Pressure  
Sea Level Pressure 29.92 in    
Wind  
Wind Speed 3 mph (NW)    
Max Wind Speed 10 mph    
Max Gust Speed -    
Visibility 8 miles    
Events      
Averages and records for this station are not official NWS values.
T = Trace of Precipitation, MM = Missing Value Source: NWS Daily Summary

Daily Weather History Graph

Daily Weather History Graph

Search for Another Location

Airport or City:

Trip Planner

Search our weather history database for the weather conditions in past years. The results will help you decide how hot, cold, wet, or windy it might be!

Date:

Astronomy

Dec. 03, 2013 Rise Set
Actual Time 6:59 AM EST 4:14 PM EST
Civil Twilight 6:27 AM EST 4:45 PM EST
Nautical Twilight 5:52 AM EST 5:21 PM EST
Astronomical Twilight 5:18 AM EST 5:55 PM EST
Moon 7:25 AM EST (12/3) 5:15 PM EST (12/3)
Length of Visible Light 10h 18m
Length of Day
9h 14m
New Moon, 1% of the Moon is Illuminated
Dec 3
New Moon
Dec 9
First Quarter
Dec 17
Full
Dec 25
Last Quarter
Jan 1
New

Hourly Weather History & Observations

Time (EST) Temp. Windchill Dew Point Humidity Pressure Visibility Wind Dir Wind Speed Gust Speed Precip Events Conditions
12:52 AM 36.0 °F 32.1 °F 34.0 °F 93% 29.93 in 7.0 mi WNW 4.6 mph - N/A   Overcast
1:20 AM 36.0 °F 33.3 °F 34.0 °F 93% 29.93 in 9.0 mi West 3.5 mph - N/A   Overcast
1:52 AM 36.0 °F 31.1 °F 34.0 °F 93% 29.94 in 10.0 mi NW 5.8 mph - N/A   Overcast
2:52 AM 35.1 °F 30.1 °F 33.1 °F 92% 29.93 in 10.0 mi NW 5.8 mph - N/A   Overcast
3:52 AM 35.1 °F 32.2 °F 32.0 °F 89% 29.92 in 10.0 mi NNW 3.5 mph - N/A   Overcast
4:43 AM 33.1 °F - 30.9 °F 92% 29.91 in 10.0 mi Calm Calm - N/A   Scattered Clouds
4:52 AM 33.1 °F - 30.0 °F 89% 29.93 in 8.0 mi Calm Calm - N/A   Partly Cloudy
5:52 AM 30.9 °F - 28.9 °F 92% 29.93 in 5.0 mi Calm Calm - N/A   Clear
6:52 AM 30.0 °F - 28.0 °F 92% 29.93 in 4.0 mi Calm Calm - N/A   Clear
7:09 AM 30.0 °F - 28.0 °F 92% 29.91 in 2.5 mi Calm Calm - N/A   Clear
7:18 AM 30.9 °F - 28.9 °F 92% 29.91 in 4.0 mi Calm Calm - N/A   Clear
7:52 AM 30.0 °F - 28.0 °F 92% 29.93 in 5.0 mi Calm Calm - N/A   Clear
8:52 AM 35.1 °F - 32.0 °F 89% 29.93 in 7.0 mi Calm Calm - N/A   Clear
9:52 AM 41.0 °F - 34.0 °F 76% 29.93 in 10.0 mi Calm Calm - N/A   Clear
10:52 AM 45.0 °F 43.5 °F 36.0 °F 71% 29.90 in 10.0 mi WNW 3.5 mph - N/A   Clear
11:52 AM 50.0 °F - 34.0 °F 54% 29.88 in 10.0 mi NNW 6.9 mph - N/A   Clear
12:52 PM 51.1 °F - 30.0 °F 44% 29.86 in 10.0 mi North 9.2 mph - N/A   Clear
1:52 PM 48.9 °F - 34.0 °F 56% 29.87 in 10.0 mi West 10.4 mph - N/A   Partly Cloudy
2:52 PM 50.0 °F - 32.0 °F 50% 29.87 in 10.0 mi NW 8.1 mph - N/A   Scattered Clouds
3:52 PM 46.9 °F - 32.0 °F 56% 29.88 in 10.0 mi NW 4.6 mph - N/A   Clear
4:52 PM 41.0 °F 38.0 °F 30.9 °F 67% 29.91 in 10.0 mi NW 4.6 mph - N/A   Clear
5:52 PM 39.0 °F 35.7 °F 32.0 °F 76% 29.93 in 10.0 mi NNW 4.6 mph - N/A   Clear
6:52 PM 34.0 °F - 30.0 °F 85% 29.94 in 9.0 mi Calm Calm - N/A   Clear
7:52 PM 33.1 °F 30.0 °F 30.0 °F 89% 29.95 in 8.0 mi NW 3.5 mph - N/A   Clear
8:52 PM 30.9 °F 27.5 °F 28.0 °F 89% 29.96 in 8.0 mi North 3.5 mph - N/A   Clear
9:52 PM 30.0 °F - 27.0 °F 88% 29.95 in 5.0 mi Calm Calm - N/A   Clear
10:52 PM 28.9 °F - 26.1 °F 89% 29.97 in 1.8 mi Calm Calm - N/A   Clear
11:03 PM 30.0 °F 26.5 °F 27.0 °F 88% 29.96 in 4.0 mi North 3.5 mph - N/A   Clear
11:52 PM 28.9 °F - 27.0 °F 92% 29.97 in 4.0 mi Calm Calm - N/A   Clear